This demonstration page uses our WeatherBlox Daily Observations layout. Learn more.

Left ArrowRight Arrow

40.92945, -100.16068

Hourly Observations for April 22, 2021

Temp ( °F °C ) Dew Point ( °F °C ) Humidity (%) Winds ( mph kmh ) Pressure ( in mb ) Visibility ( mi km ) Precip ( " mm )
12:15 am 00:15 Clear 35 1.4 21 -6 58 58 SSE 6 9 30.21 1023 10 16.0934 0 0
12:35 am 00:35 Clear 33 0.6 22 -5.6 64 64 SSE 7 11 30.22 1023 10 16.0934 0 0
12:55 am 00:55 Clear 32 0.2 22 -5.7 65 65 SSE 7 11 30.23 1024 10 16.0934 0 0
1:15 am 01:15 Clear 32 0 22 -5.6 66 66 S 6 9 30.23 1024 10 16.0934 0 0
1:35 am 01:35 Clear 32 -0.1 22 -5.5 67 67 SSE 5 7 30.22 1023 10 16.0934 0 0
1:55 am 01:55 Clear 32 0 22 -5.4 67 67 S 7 11 30.22 1023 10 16.0934 0 0
2:10 am 02:10 Clear 32 0.1 23 -5 69 69 S 7 11 30.22 1023 10 16.0934 0 0
2:35 am 02:35 Clear 32 0 24 -4.6 71 71 S 5 7 30.21 1023 10 16.0934 0 0
2:55 am 02:55 Mostly Cloudy 33 0.6 26 -3.6 74 74 S 7 11 30.19 1022 10 16.0934 0 0
3:15 am 03:15 Cloudy 35 1.4 26 -3.4 71 71 S 8 13 30.17 1022 10 16.0934 0 0
3:35 am 03:35 Cloudy 36 2 26 -3.1 69 69 S 9 15 30.16 1021 10 16.0934 0 0
3:55 am 03:55 Cloudy 36 2.3 27 -2.8 69 69 S 7 11 30.15 1021 10 16.0934 0 0
4:15 am 04:15 Cloudy 37 2.5 27 -3 67 67 SSE 8 13 30.14 1021 10 16.0934 0 0
4:35 am 04:35 Cloudy 36 2.3 28 -2.5 71 71 SSE 8 13 30.13 1020 10 16.0934 0 0
4:55 am 04:55 Cloudy 37 2.5 28 -2.5 70 70 S 8 13 30.14 1021 10 16.0934 0 0
5:15 am 05:15 Cloudy 37 2.7 27 -2.6 68 68 S 10 17 30.14 1021 10 16.0934 0 0
5:35 am 05:35 Cloudy 37 2.6 27 -2.6 69 69 S 9 15 30.14 1021 10 16.0934 0 0
5:55 am 05:55 Cloudy 37 2.5 28 -2.3 71 71 S 10 17 30.13 1020 10 16.0934 0 0
6:15 am 06:15 Cloudy 37 2.6 28 -2.5 69 69 S 9 15 30.13 1020 10 16.0934 0 0
6:35 am 06:35 Cloudy 37 2.6 28 -2.3 70 70 S 12 19 30.13 1020 10 16.0934 0 0
6:55 am 06:55 Cloudy 37 2.6 28 -2.3 70 70 S 10 17 30.13 1020 10 16.0934 0 0
7:15 am 07:15 Cloudy 37 2.7 28 -2.2 70 70 S 12 19 30.13 1020 10 16.0934 0 0
7:35 am 07:35 Cloudy 37 2.9 28 -2.1 70 70 S 10 17 30.13 1020 10 16.0934 0 0
7:55 am 07:55 Cloudy 38 3.4 29 -1.7 70 70 S 13 20 30.12 1020 10 16.0934 0 0
8:15 am 08:15 Cloudy 39 3.8 29 -1.8 67 67 S 14 22 30.12 1020 10 16.0934 0 0
8:35 am 08:35 Cloudy 39 4.1 29 -1.8 66 66 S 13 20 30.12 1020 10 16.0934 0 0
8:55 am 08:55 Cloudy 40 4.5 29 -1.5 65 65 SSE 14 22 30.1 1019 10 16.0934 0 0
9:15 am 09:15 Cloudy 41 5.1 30 -1.3 64 64 SSE 15 24 30.09 1019 10 16.0934 0 0
9:35 am 09:35 Mostly Cloudy 42 5.6 29 -1.6 60 60 SSE 16 26 30.08 1019 10 16.0934 0 0
9:55 am 09:55 Partly Cloudy 45 7.2 30 -1.3 55 55 SSE 20 31 30.06 1018 10 16.0934 0 0
10:15 am 10:15 Partly Cloudy 46 7.5 29 -1.9 52 52 SSE 23 37 30.03 1017 10 16.0934 0 0
10:35 am 10:35 Partly Cloudy 47 8.3 28 -2 49 49 SSE 28 44 30.01 1016 10 16.0934 0 0
10:55 am 10:55 Mostly Cloudy 49 9.3 31 -0.5 51 51 S 28 44 30 1016 10 16.0934 0 0
11:15 am 11:15 Cloudy 47 8.4 31 -0.3 55 55 SSE 26 43 30.01 1016 10 16.0934 0 0
11:35 am 11:35 Mostly Cloudy 47 8.5 32 0 55 55 S 29 46 30 1016 10 16.0934 0 0
11:55 am 11:55 Cloudy 47 8.1 31 -0.8 54 54 S 29 46 30 1016 10 16.0934 0 0
12:15 pm 12:15 Cloudy with Light Rain 44 6.7 32 0.2 64 64 SSE 29 46 30 1016 10 16.0934 0 0
12:35 pm 12:35 Cloudy with Drizzle 44 6.5 34 0.9 68 68 SSE 21 33 29.98 1015 10 16.0934 0 0
12:55 pm 12:55 Cloudy 47 8.2 34 0.9 60 60 SSE 22 35 29.95 1014 10 16.0934 0 0
1:15 pm 13:15 Mostly Cloudy 49 9.6 31 -0.8 49 49 SSE 30 48 29.92 1013 10 16.0934 0 0
1:35 pm 13:35 Partly Cloudy 49 9.7 30 -1 48 48 SSE 24 39 29.91 1013 10 16.0934 0 0
1:55 pm 13:55 Partly Cloudy 50 10 30 -1 47 47 S 29 46 29.89 1012 10 16.0934 0 0
2:15 pm 14:15 Mostly Cloudy 52 11.1 31 -0.3 46 46 SSE 29 46 29.85 1011 10 16.0934 0 0
2:35 pm 14:35 Partly Cloudy 55 13 32 0 41 41 S 32 52 29.81 1010 10 16.0934 0 0
2:55 pm 14:55 Partly Cloudy 56 13.4 32 0 40 40 S 32 52 29.81 1009 10 16.0934 0 0
3:15 pm 15:15 Mostly Cloudy 53 11.9 32 0 44 44 S 24 39 29.82 1010 10 16.0934 0 0
3:35 pm 15:35 Cloudy 52 11.3 32 -0.1 46 46 S 29 46 29.84 1010 10 16.0934 0 0
3:55 pm 15:55 Cloudy 51 10.7 32 0 48 48 S 22 35 29.84 1011 10 16.0934 0 0
4:15 pm 16:15 Cloudy 51 10.7 32 0.1 48 48 S 21 33 29.82 1010 10 16.0934 0 0
4:35 pm 16:35 Cloudy 52 11 32 0 47 47 S 23 37 29.81 1010 10 16.0934 0 0
4:55 pm 16:55 Cloudy 53 11.4 32 0 46 46 SSE 25 41 29.8 1009 10 16.0934 0 0
5:15 pm 17:15 Cloudy 53 11.9 32 0.1 45 45 SSE 26 43 29.78 1009 10 16.0934 0 0
5:35 pm 17:35 Mostly Cloudy 54 12.2 32 0.2 44 44 SSE 23 37 29.76 1008 10 16.0934 0 0
5:55 pm 17:55 Partly Cloudy 54 12 32 0 44 44 SSE 22 35 29.76 1008 10 16.0934 0 0
6:15 pm 18:15 Partly Cloudy 53 11.7 32 0 45 45 SSE 20 31 29.77 1008 10 16.0934 0 0
6:35 pm 18:35 Sunny 55 12.6 33 0.3 43 43 SSE 22 35 29.75 1007 10 16.0934 0 0
6:55 pm 18:55 Sunny 54 12.4 33 0.4 44 44 SSE 26 43 29.74 1007 10 16.0934 0 0
7:15 pm 19:15 Sunny 54 12 33 0.5 46 46 SSE 22 35 29.74 1007 10 16.0934 0 0
7:35 pm 19:35 Sunny 53 11.5 33 0.3 46 46 SSE 21 33 29.75 1007 10 16.0934 0 0
7:55 pm 19:55 Sunny 52 10.9 33 0.4 49 49 SSE 21 33 29.75 1008 10 16.0934 0 0
8:15 pm 20:15 Sunny 50 10.1 33 0.5 52 52 SSE 20 31 29.76 1008 10 16.0934 0 0
8:35 pm 20:35 Partly Cloudy 49 9.7 32 0.2 52 52 SSE 21 33 29.77 1008 10 16.0934 0 0
8:55 pm 20:55 Clear 48 9.1 32 0.2 54 54 SSE 16 26 29.78 1008 10 16.0934 0 0
9:15 pm 21:15 Clear 47 8.6 32 0.1 55 55 SSE 22 35 29.78 1009 10 16.0934 0 0
9:35 pm 21:35 Clear 47 8.4 32 0.1 56 56 SSE 20 31 29.8 1009 10 16.0934 0 0
9:55 pm 21:55 Clear 46 7.8 32 0.1 59 59 SSE 20 31 29.8 1009 10 16.0934 0 0
10:15 pm 22:15 Clear 46 7.6 32 0.1 59 59 SSE 17 28 29.82 1010 10 16.0934 0 0
10:35 pm 22:35 Clear 45 7.4 32 0.2 61 61 SSE 17 28 29.83 1010 10 16.0934 0 0
10:55 pm 22:55 Clear 45 7 33 0.5 64 64 SSE 17 28 29.84 1010 10 16.0934 0 0
11:15 pm 23:15 Clear 44 6.8 33 0.8 66 66 SSE 16 26 29.83 1010 10 16.0934 0 0
11:35 pm 23:35 Clear 44 6.5 34 1.1 69 69 SSE 18 30 29.83 1010 10 16.0934 0 0
11:55 pm 23:55 Clear 43 6.2 34 1.2 71 71 SSE 18 30 29.85 1011 10 16.0934 0 0

Powered by AerisWeather